Wind_Speed
45 46 46 47 47 47 47 46 46 46 46 46 46 45 45 45 45 45 45 46 46 46 46 46 45 45 43 42 41 40 40 38 37 35 35 35 35 34 34 34 33 32 31
44 45 45 46 47 47 47 47 48 48 49 49 49 48 47 47 46 46 45 45 47 48 47 47 47 47 46 44 44 43 41 40 39 37 36 35 36 35 35 35 34 33 33
40 40 41 42 43 44 45 45 46 47 49 49 49 48 48 47 45 46 46 46 47 48 48 48 49 48 47 45 45 45 42 41 40 39 37 36 36 36 34 34 34 33 32
39 39 40 40 41 42 43 45 46 47 47 48 49 49 48 48 47 47 47 46 47 47 47 48 49 49 48 47 46 45 43 43 41 38 36 35 35 34 32 33 34 33 32
40 40 41 41 42 43 44 46 47 48 49 50 50 50 51 50 49 48 47 46 46 47 47 48 47 47 47 44 41 39 40 39 37 37 35 34 33 32 31 31 32 32 32
39 39 40 41 42 44 45 46 48 49 50 51 52 53 53 53 52 50 49 48 48 48 48 47 47 46 46 42 40 39 37 35 33 33 32 32 32 31 31 30 30 30 31
34 35 36 38 40 42 44 46 48 49 51 52 53 54 54 54 53 52 51 50 50 49 48 47 44 42 42 40 38 36 35 32 31 30 31 31 31 30 30 29 28 29 30
30 31 33 34 36 39 41 44 46 49 51 52 53 54 54 54 53 53 52 51 50 48 47 44 43 42 41 38 36 33 32 30 29 28 29 29 29 29 29 28 27 27 28
27 29 30 32 34 37 39 42 44 47 50 52 55 56 55 55 55 54 53 52 49 47 45 43 41 39 38 37 33 30 29 29 29 29 29 29 29 28 28 28 28 28 28
27 28 29 31 33 34 36 38 40 42 44 47 50 52 54 54 53 52 51 49 48 46 44 44 40 38 36 34 31 29 28 28 29 30 30 29 29 29 29 29 29 29 29
28 29 30 31 32 34 35 36 37 38 40 41 43 44 46 48 48 48 47 46 45 44 44 42 40 38 35 33 31 30 29 29 29 30 30 29 30 30 31 31 30 30 31
29 30 30 31 32 32 33 34 34 35 36 37 38 38 39 40 41 41 42 42 42 42 42 39 37 35 34 33 30 29 29 29 30 30 30 30 31 32 32 32 33 33 33
30 30 30 30 30 30 31 32 32 32 33 33 33 34 34 35 35 37 38 39 38 37 36 36 34 31 31 30 30 30 29 29 30 30 30 31 32 32 33 34 34 35 36
30 29 29 29 28 28 29 29 30 29 29 28 28 27 27 27 28 31 33 34 35 35 34 32 30 30 30 29 29 28 28 29 29 29 30 31 32 33 34 35 36 37 38
29 28 27 27 27 27 28 28 28 27 26 25 24 24 23 22 23 24 26 27 28 29 29 28 28 28 27 27 26 26 26 27 27 28 30 31 32 33 34 35 36 37 38
29 28 27 26 26 26 26 27 27 25 24 23 22 23 22 20 19 19 20 20 21 22 23 24 24 23 23 23 23 24 25 26 27 28 29 30 32 32 33 34 35 36 37
28 28 27 26 25 25 25 25 25 23 22 21 20 21 20 17 15 15 15 16 17 19 19 19 19 18 18 18 19 21 22 23 24 26 27 29 29 31 32 33 34 35 36
28 27 26 25 24 24 23 23 22 21 19 18 18 18 17 16 14 14 14 14 13 13 13 14 15 16 16 17 18 19 20 22 23 24 25 26 27 28 30 31 32 34 36
28 27 26 25 24 23 22 22 20 19 18 17 16 15 14 14 14 12 11 10 11 11 11 12 13 14 14 15 16 17 17 18 19 20 21 23 25 27 28 30 32 33 35
29 28 27 25 24 23 21 20 19 17 16 15 14 13 12 12 12 11 10 9 9 10 10 11 11 12 12 13 13 13 14 15 16 18 20 22 24 26 28 29 31 33 34
29 29 28 26 24 23 21 20 18 16 15 14 13 12 11 10 10 10 10 9 9 9 9 10 10 11 10 10 10 11 12 13 15 17 19 21 23 24 26 28 29 30 31
30 29 28 27 25 23 22 20 18 16 14 13 12 11 10 10 10 9 9 9 9 9 9 9 9 9 9 9 9 10 10 12 14 16 18 20 22 23 25 26 28 28 29
31 29 28 27 25 24 22 21 19 17 15 13 12 12 11 11 10 9 9 9 9 9 9 9 8 8 8 8 8 9 10 11 13 15 17 19 21 22 24 26 27 27 26
32 29 28 26 26 25 23 22 20 18 16 15 13 13 12 12 12 12 11 11 11 10 10 10 9 9 9 9 9 9 10 12 13 15 16 18 20 22 24 26 26 25 25
32 31 29 28 27 26 25 24 22 20 19 17 16 14 13 13 12 12 12 12 12 11 11 11 10 10 10 10 10 11 11 12 13 14 15 17 20 22 24 25 26 26 25
32 31 29 28 28 27 26 25 23 21 20 19 18 17 15 15 14 14 13 13 12 12 12 12 12 12 12 12 12 12 12 12 12 14 15 17 20 22 24 25 25 25 25
Wind_Direction
268 269 269 269 270 271 271 271 271 271 271 271 269 268 269 269 269 269 270 271 272 273 274 273 273 273 272 270 269 269 269 269 268 269 271 272 275 278 281 285 287 289 290
267 267 267 267 267 268 269 269 270 269 269 269 267 267 267 268 268 269 270 272 273 275 275 274 273 273 271 271 270 271 269 269 269 269 270 272 275 278 281 285 287 288 289
269 268 267 266 266 267 267 268 268 269 269 269 268 268 270 270 271 271 271 272 274 274 274 275 272 270 269 269 270 270 271 270 269 269 269 271 273 277 281 284 287 289 289
270 270 268 267 266 266 267 267 268 269 270 270 271 272 273 273 274 274 273 273 274 274 274 274 272 269 268 267 269 268 267 269 268 269 269 271 272 274 279 284 287 288 289
271 271 270 269 268 268 268 268 268 269 270 271 272 273 274 274 275 275 276 277 277 277 277 274 271 269 268 267 266 264 265 265 264 268 268 270 272 275 278 281 285 287 288
273 272 272 271 271 271 270 270 270 270 270 271 272 273 274 275 275 276 276 278 278 278 278 275 272 267 263 263 262 261 260 263 264 265 266 268 273 276 279 281 282 284 286
276 276 276 275 274 273 273 273 273 272 271 271 271 271 273 274 274 275 276 276 276 277 276 276 271 266 261 258 259 257 259 260 261 264 267 269 273 275 278 280 280 280 282
280 280 280 279 278 276 275 275 274 272 272 271 271 271 271 272 273 275 275 275 275 275 275 272 267 263 258 256 253 255 255 256 259 264 267 270 273 275 277 278 278 277 279
285 285 284 283 282 281 279 278 276 275 274 272 270 270 270 270 271 272 273 273 273 272 272 267 264 260 256 252 252 254 257 257 260 265 268 271 273 274 275 276 277 277 277
288 290 290 290 289 288 286 284 282 280 278 275 272 271 269 269 269 269 270 269 269 267 266 263 259 255 252 249 251 254 257 259 263 265 268 270 272 273 275 276 277 278 276
292 293 295 296 297 296 294 291 288 286 284 281 277 273 270 268 267 266 266 265 264 261 259 255 255 252 249 250 252 254 259 262 263 265 267 270 271 273 274 276 277 278 278
294 295 297 299 301 302 301 299 295 292 290 287 281 276 272 267 265 262 261 262 260 258 255 252 248 247 247 248 251 255 260 262 264 266 269 270 272 273 275 277 278 278 278
293 294 297 299 302 304 305 304 302 298 296 292 286 278 272 267 264 260 257 257 256 254 250 247 246 244 246 248 252 256 260 263 266 268 270 272 274 275 277 278 279 279 279
292 294 296 299 301 304 306 306 306 304 302 299 295 284 274 268 266 260 254 254 253 252 250 245 245 246 246 248 253 257 261 265 268 271 273 274 276 277 279 280 280 280 280
290 292 295 297 300 303 306 307 308 307 304 300 296 289 280 269 263 260 255 253 250 250 246 245 247 246 247 250 254 260 265 269 271 273 275 277 278 280 281 281 282 282 281
288 290 293 296 298 300 304 306 307 306 305 301 297 293 286 278 270 262 252 245 243 244 242 244 245 246 250 253 258 263 268 271 273 275 277 279 281 282 283 284 284 284 283
288 290 292 293 296 298 303 305 306 306 305 303 299 295 292 286 279 267 264 257 252 250 252 251 251 254 256 259 265 268 271 273 275 277 280 282 284 285 286 286 286 286 285
289 288 290 291 292 295 299 303 304 305 305 302 300 297 294 290 289 284 279 275 270 262 255 254 257 259 260 263 267 270 273 275 278 281 283 284 286 287 289 289 290 290 289
291 287 287 287 289 291 295 298 301 302 301 301 299 296 289 287 287 284 282 277 275 269 265 262 260 261 262 266 268 270 274 277 280 283 286 288 290 292 293 294 295 294 293
292 287 284 283 284 287 290 293 295 297 296 295 295 289 283 279 279 278 277 273 268 264 261 259 258 259 261 264 267 270 274 279 284 288 292 294 297 298 300 301 301 300 298
291 287 281 279 278 280 284 287 290 292 292 289 287 284 277 270 268 266 264 264 259 255 250 250 252 254 255 259 264 270 276 283 290 295 299 301 303 306 308 309 309 306 303
290 287 281 275 273 273 276 280 283 285 285 282 277 274 270 266 264 259 255 254 255 254 252 249 245 245 247 254 264 272 282 292 298 302 305 308 311 315 318 318 317 315 311
289 285 280 273 269 268 270 272 275 277 279 276 269 264 262 261 257 254 252 250 249 248 248 246 244 249 253 260 267 277 289 297 302 307 311 316 321 324 326 326 324 321 318
288 283 278 272 268 266 265 266 267 268 270 269 264 260 258 255 251 248 248 246 245 245 246 247 248 252 255 259 267 277 288 297 306 312 319 325 331 333 333 332 329 327 325
284 281 277 271 266 264 262 261 262 262 262 261 260 257 253 249 247 246 244 243 244 244 244 245 248 251 254 259 269 279 289 297 306 316 325 332 335 337 337 337 335 332 329
279 277 274 272 268 263 259 257 256 257 256 255 254 253 250 247 245 245 245 245 244 245 246 247 251 255 259 264 270 278 287 295 306 316 326 333 337 339 340 340 339 338 334
Height
5887 5886 5886 5885 5884 5883 5882 5881 5880 5879 5878 5877 5876 5874 5873 5871 5870 5869 5868 5866 5864 5863 5862 5861 5861 5859 5858 5857 5857 5857 5857 5856 5855 5856 5856 5855 5854 5853 5852 5851 5850 5849 5848
5876 5876 5875 5875 5874 5873 5872 5872 5871 5870 5869 5868 5866 5865 5863 5862 5861 5860 5858 5857 5855 5853 5852 5852 5851 5849 5848 5848 5848 5847 5847 5848 5847 5848 5848 5848 5847 5845 5845 5843 5842 5841 5840
5866 5866 5865 5865 5864 5864 5863 5862 5862 5861 5859 5858 5856 5855 5854 5852 5851 5850 5849 5847 5844 5843 5842 5841 5840 5839 5838 5838 5838 5838 5838 5839 5839 5839 5840 5840 5839 5838 5837 5835 5834 5833 5832
5857 5856 5856 5855 5855 5854 5854 5853 5852 5851 5849 5848 5846 5845 5844 5843 5842 5839 5838 5836 5834 5832 5831 5830 5829 5828 5828 5828 5829 5829 5829 5830 5830 5831 5831 5832 5831 5831 5830 5828 5826 5825 5824
5848 5847 5846 5845 5845 5844 5843 5843 5842 5840 5839 5838 5836 5834 5834 5832 5830 5828 5827 5825 5823 5822 5821 5820 5819 5818 5818 5818 5818 5819 5819 5820 5821 5822 5822 5823 5823 5822 5822 5822 5819 5817 5816
5838 5837 5836 5835 5834 5833 5832 5831 5830 5829 5828 5826 5825 5822 5821 5819 5818 5817 5816 5815 5813 5812 5810 5809 5809 5808 5808 5809 5809 5810 5810 5812 5812 5813 5814 5815 5815 5814 5814 5814 5812 5810 5808
5829 5827 5826 5825 5823 5822 5821 5819 5817 5816 5814 5813 5811 5810 5808 5806 5805 5805 5804 5803 5802 5801 5799 5797 5797 5797 5798 5799 5800 5800 5801 5803 5804 5805 5806 5806 5806 5806 5806 5805 5805 5803 5802
5821 5819 5817 5815 5813 5811 5809 5806 5804 5802 5800 5799 5797 5795 5794 5792 5791 5792 5791 5791 5790 5789 5787 5786 5787 5788 5789 5790 5790 5790 5792 5794 5796 5797 5797 5798 5798 5797 5797 5797 5797 5796 5795
5813 5811 5808 5805 5802 5800 5797 5794 5791 5788 5786 5784 5782 5780 5779 5779 5778 5778 5778 5778 5777 5777 5776 5775 5776 5776 5778 5779 5781 5782 5784 5785 5787 5788 5789 5789 5789 5789 5789 5789 5788 5789 5788
5805 5802 5799 5795 5792 5788 5785 5782 5778 5775 5771 5768 5766 5765 5764 5763 5764 5764 5764 5764 5764 5764 5764 5764 5764 5766 5768 5769 5771 5773 5776 5777 5779 5780 5781 5781 5781 5781 5781 5781 5780 5780 5780
5797 5793 5790 5786 5782 5777 5773 5769 5765 5761 5757 5754 5751 5749 5748 5748 5749 5750 5750 5751 5751 5752 5752 5753 5755 5756 5758 5760 5762 5765 5767 5769 5770 5771 5772 5772 5773 5773 5773 5772 5772 5771 5771
5788 5784 5780 5776 5772 5767 5763 5758 5753 5749 5745 5741 5738 5735 5734 5734 5735 5736 5737 5738 5740 5741 5742 5743 5745 5747 5749 5752 5754 5756 5759 5760 5762 5763 5764 5764 5764 5765 5764 5764 5763 5763 5762
5780 5776 5772 5768 5763 5759 5754 5749 5744 5739 5735 5731 5727 5725 5724 5723 5724 5725 5726 5727 5728 5729 5731 5733 5735 5738 5740 5743 5745 5748 5750 5752 5753 5754 5755 5755 5756 5756 5755 5755 5754 5753 5752
5772 5768 5764 5760 5756 5751 5747 5742 5737 5732 5727 5723 5720 5717 5715 5714 5714 5715 5716 5717 5719 5721 5723 5725 5727 5729 5732 5735 5737 5740 5742 5744 5745 5745 5746 5747 5747 5746 5746 5745 5744 5743 5742
5763 5760 5756 5752 5749 5744 5740 5736 5731 5727 5722 5718 5715 5712 5710 5709 5708 5708 5709 5710 5711 5714 5716 5718 5720 5722 5724 5727 5730 5732 5734 5735 5736 5737 5738 5738 5737 5737 5736 5735 5734 5733 5731
5755 5752 5749 5745 5742 5738 5734 5730 5726 5722 5718 5714 5710 5708 5707 5705 5704 5704 5704 5705 5706 5708 5710 5711 5713 5715 5718 5720 5722 5725 5726 5728 5729 5729 5729 5729 5729 5728 5727 5726 5724 5723 5721
5747 5745 5742 5738 5735 5732 5728 5724 5721 5717 5713 5709 5706 5704 5703 5701 5700 5700 5700 5701 5702 5703 5705 5706 5708 5710 5712 5714 5716 5718 5720 5721 5721 5721 5721 5721 5720 5719 5718 5716 5715 5713 5710
5740 5737 5734 5731 5729 5726 5722 5719 5716 5712 5709 5706 5703 5701 5699 5698 5697 5697 5697 5697 5698 5699 5700 5702 5703 5705 5707 5709 5711 5712 5713 5714 5714 5714 5714 5713 5712 5711 5709 5707 5705 5702 5700
5732 5729 5727 5725 5722 5720 5717 5714 5711 5708 5705 5703 5700 5698 5696 5695 5694 5694 5694 5694 5695 5696 5697 5698 5699 5701 5702 5704 5705 5706 5707 5708 5708 5708 5707 5706 5705 5703 5701 5699 5696 5693 5689
5723 5721 5719 5717 5715 5713 5711 5709 5706 5704 5701 5699 5697 5695 5694 5693 5692 5691 5691 5691 5692 5692 5693 5694 5695 5697 5698 5699 5700 5701 5702 5703 5703 5702 5702 5700 5698 5696 5694 5690 5687 5683 5679
5715 5713 5711 5710 5708 5707 5705 5703 5701 5699 5697 5695 5694 5692 5691 5690 5689 5689 5688 5689 5689 5689 5690 5691 5692 5693 5694 5695 5696 5697 5698 5698 5698 5697 5696 5694 5692 5689 5686 5682 5678 5674 5670
5706 5704 5703 5702 5701 5700 5699 5697 5696 5695 5693 5691 5690 5689 5688 5687 5687 5686 5686 5686 5686 5687 5687 5688 5689 5690 5691 5692 5693 5694 5694 5694 5693 5692 5691 5689 5686 5683 5679 5675 5670 5666 5662
5697 5696 5694 5693 5693 5692 5692 5691 5690 5690 5689 5687 5686 5686 5685 5684 5684 5684 5684 5684 5684 5684 5685 5685 5686 5687 5688 5688 5689 5690 5690 5690 5689 5687 5686 5683 5680 5677 5673 5668 5664 5659 5655
5688 5687 5686 5685 5684 5684 5684 5684 5684 5684 5683 5683 5682 5682 5681 5681 5681 5681 5681 5681 5681 5682 5682 5683 5683 5684 5685 5685 5686 5686 5686 5686 5684 5683 5681 5678 5675 5671 5667 5663 5658 5653 5649
5679 5677 5676 5676 5676 5676 5676 5677 5677 5677 5677 5677 5677 5677 5677 5677 5677 5677 5678 5678 5678 5679 5679 5680 5680 5681 5682 5682 5683 5683 5682 5681 5680 5678 5676 5673 5670 5666 5662 5657 5653 5648 5644
5668 5667 5667 5666 5666 5667 5667 5668 5669 5670 5671 5671 5672 5672 5672 5673 5673 5673 5674 5674 5675 5675 5676 5676 5677 5677 5678 5678 5678 5678 5678 5677 5676 5674 5671 5668 5665 5662 5657 5653 5648 5644 5639